Погода в Недокуре

Россия / Красноярский край     58°34′36″N   100°37′10″E
темп.,
°C
ветер,
м/с
пор.,
м/с
влажн.,
%
обл.,
%
осадки,
мм/ч
давл.,
гПа
погр.,
м
15 мая, сб
сб1501:00+4зсз5993100 3.6 1009823
04:000з411888 0.1 1011615
07:00+2з597555 0.1 10121072
10:00+6зюз6952100 0.1 10101523
13:00+4юз61187100 0.4 1008948
16:00+3юз51496100 1.3 1007871
19:00+6зсз6137953 1.4 10061383
22:00+2зсз411855 0.0 1008595
16 мая, вс
вс1601:000зсз24925 0.0 101080
04:00−2зсз23965 0.0 101259
07:00+1сз47615 0.0 1014928
10:00+5зсз46395 0.0 10141484
13:00+8зсз472753 0.0 10132034
16:00+9зсз472546 0.0 10112293
19:00+7сз3631100 0.0 1011554
22:00+2сз224699 0.0 101114
17 мая, пн
пн1701:00−1сз22581 0.0 101214
04:00−3ссз22665 0.0 101231
07:00+2с35405 0.0 1013587
10:00+5ссз47285 0.0 10122143
13:00+8сз4723100 0.0 10122824
16:00+8сз4822100 0.0 10113069
19:00+7ссз362889 0.0 10121441
22:00+1ссз224277 0.0 101311
18 мая, вт
вт1801:00−2зсз11495 0.0 101410
04:00−3сз115284 0.0 101410
07:00+3ссз24351 0.0 1013588
10:00+6ссз352622 0.0 10112324
13:00+8ссз352299 0.0 10092816
16:00+9с4521100 0.0 10082991
19:00+7ссв462999 0.0 1008890
22:000св115046 0.0 101013
19 мая, ср
ср1901:00−2ссз115723 0.0 101110
04:00−4ссз11595 0.0 101112
07:00+2ссв24365 0.0 1011504
10:00+6ссв342519 0.0 10101955
13:00+9с34225 0.0 10092479
16:00+9с342195 0.0 10082803
19:00+8ссв342713 0.0 1008486
22:00+1всв22495 0.0 101019